Tracking 29799 objects as of 11-Oct-2024
HD Live streaming from Space Station
objects crossing your sky now

FALCON 9 R/B

Track FALCON 9 R/B now!
10-day predictions


NORAD ID: 58348
Int'l Code: 2023-175C
Perigee: 2,599.3 km
Apogee: 7,010.1 km
Inclination: 9.0 °
Period: 196.0 minutes
Semi major axis: 11175 km
RCS: Unknown
Launch date: November 12, 2023
Source: United States (US)
Launch site: AIR FORCE EASTERN TEST RANGE (AFETR)

Note: This is a ROCKET BODY
Your satellite tracking list
Your tracking list is empty




NASA's NSSDC Master Catalog

Two Line Element Set (TLE):
1 58348U 23175C   24284.86149190 -.00000010  00000-0 -24752-1 0  9998
2 58348   9.0175  61.5336 1973384  80.8494 300.8357  7.34838826 24498
Source of the keplerian elements: AFSPC